Regional Weather Roundup
Issued by NWS

Home | Current Version | Previous Version | Text Only | Print | Product List | Glossary Off
Versions: 1 2 3 4 5 6 7 8 9 10 11 12 13 14 15 16 17 18 19 20 21 22 23 24 25 26 27 28 29 30 31 32 33 34 35 36 37 38 39 40 41 42 43 44 45 46 47 48 49 50

412
ASUS44 KLIX 241710
RWRLA
LOUISIANA WEATHER ROUNDUP
NATIONAL WEATHER SERVICE NEW ORLEANS LA
1100 AM CST MON NOV 24 2014

NOTE: "FAIR" INDICATES FEW OR NO CLOUDS BELOW 12,000 FEET WITH NO
      SIGNIFICANT WEATHER AND/OR OBSTRUCTIONS TO VISIBILITY.
      SKY/WX - SKY CONDITION AND SIGNIFICANT WEATHER.
      TMP - AIR TEMPERATURE.    DP   - DEWPOINT TEMPERATURE.
      RH  - RELATIVE HUMIDITY.  PRES - PRESSURE.
      HX  - HEAT INDEX.         WCI  - WIND CHILL INDEX.

*  THESE STATIONS ARE NOT NWS OR FAA STATIONS AND ARE NOT UNDER
   NWS QUALITY CONTROL.

LAZ040-048-061>063-065-066-069-241800-
SOUTHEAST LOUISIANA

CITY           SKY/WX    TMP DP  RH WIND       PRES   REMARKS
N.O. AUDUBON     N/A     70  58  65 MISG        N/A
N.O. INTL ARPT PTSUNNY   68  55  63 NW15G22   29.90R
N.O. LAKEFRONT SUNNY     64  57  78 NW13      29.90S
N.O. DOWNTOWN* FAIR      68  55  64 NW10G17   29.91S
SLIDELL        SUNNY     72  51  47 N13       29.88S
BATON ROUGE    SUNNY     61  44  53 N9        29.94F
BOOTHVILLE     SUNNY     73  64  73 NW10      29.87F
BELLE CHASSE   PTSUNNY   71  52  50 N14G20    29.89R
BOGALUSA*        N/A     68  52  55 NW8       29.92S
NEW ROADS*     FAIR      60  46  59 NW9G16    29.97S
GONZALES*      FAIR      63  49  59 NW13G18   29.92F
HAMMOND*       SUNNY     66  48  52 NW10      29.93F
HOUMA*         SUNNY     70  55  60 NW14      29.89F
PORT FOURCHON* SUNNY     70  64  83 NW10      29.91F

$$

LAZ041-044-053-054-241800-
SOUTHWEST LOUISIANA

CITY           SKY/WX    TMP DP  RH WIND       PRES   REMARKS
LAKE CHARLES   SUNNY     60  45  57 N14       29.99S
LAFAYETTE      SUNNY     62  45  53 N14       29.97S
PATTERSON      SUNNY     66  52  59 NW12G17   29.94F
SALT POINT       N/A     69  53  56 N8        29.91F
NEW IBERIA     SUNNY     62  45  53 N14       29.97R
CHENAULT AIRPK NOT AVBL

$$

LAZ027-028-241800-
CENTRAL LOUISIANA

CITY           SKY/WX    TMP DP  RH WIND       PRES   REMARKS
FORT POLK      SUNNY     58  36  44 N12G17    29.99F
ALEXANDRIA INT SUNNY     59  38  45 N12       29.99S
ALEXANDRIA     SUNNY     60  38  43 N9G20     30.00R

$$

LAZ001-002-241800-
NORTHWEST LOUISIANA

CITY           SKY/WX    TMP DP  RH WIND       PRES   REMARKS
SHREVEPORT     SUNNY     57  33  40 NW16      30.03R
BARKSDALE AFB  SUNNY     57  34  41 N12       30.03R
DTN SHREVEPORT SUNNY     56  32  40 NW10      30.04R

$$

LAZ014-016-241800-
NORTHEAST LOUISIANA

CITY           SKY/WX    TMP DP  RH WIND       PRES   REMARKS
MONROE         SUNNY     57  35  43 N13       30.00R
TALLULAH       SUNNY     58  41  53 NW9       29.98R

$$




USA.gov is the U.S. government's official web portal to all federal, state and local government web resources and services.